EW9363 Weather Reports


time (UTC)temp
F
wind
direction
speed
knots
gust
knots
rain 1hr
in
rain 24hr
in
rain mn
in
humidity
%
barometer
mb
20260906112355 70 272 0.0 0.0 0.00 0.74 0.01 99 1013.3
20260906111848 70 272 0.0 0.0 0.00 0.74 0.01 99 1013.1
20260906111342 69 272 0.0 0.0 0.00 0.74 0.01 99 1013.1
20260906110836 69 272 0.0 0.0 0.00 0.74 0.01 99 1013.0
20260906110330 69 272 0.0 0.0 0.00 0.74 0.01 99 1013.0
20260906110054 69 272 0.0 0.0 0.00 0.74 0.01 99 1012.9
20260906105318 69 272 0.0 0.0 0.01 0.74 0.01 99 1012.8
20260906105036 69 272 0.0 0.0 0.01 0.74 0.01 99 1012.7
20260906104306 69 272 0.0 0.0 0.01 0.74 0.01 99 1012.6
20260906103801 69 272 0.0 0.0 0.01 0.74 0.01 99 1012.5
20260906103254 69 272 0.0 0.0 0.01 0.74 0.01 98 1012.3
20260906102754 69 272 0.0 0.0 0.01 0.74 0.01 99 1012.4
20260906102250 69 272 0.0 0.0 0.01 0.74 0.01 99 1012.4
20260906101750 69 272 0.0 0.0 0.01 0.74 0.01 99 1012.5
20260906101250 69 272 0.0 0.9 0.01 0.74 0.01 98 1012.4
20260906100750 69 272 0.0 2.6 0.01 0.74 0.01 98 1012.6
20260906100249 70 272 0.9 2.6 0.01 0.74 0.01 98 1012.6
20260906095749 70 272 0.9 1.7 0.01 0.74 0.01 98 1012.5
20260906095249 70 272 0.0 1.7 0.00 0.73 0.00 98 1012.5
20260906095012 70 272 0.0 0.0 0.00 0.73 0.00 98 1012.4
20260906094248 70 272 0.0 0.0 0.00 0.73 0.00 98 1012.5
20260906094013 70 272 0.0 0.0 0.00 0.73 0.00 98 1012.3
20260906093254 70 272 0.0 0.0 0.00 0.73 0.00 98 1012.3
20260906092750 70 272 0.0 1.7 0.00 0.73 0.00 98 1012.5
20260906092515 70 272 0.9 1.7 0.00 0.73 0.00 98 1012.5
20260906091749 70 272 0.0 1.7 0.00 0.73 0.00 98 1012.4
20260906091248 70 266 0.0 1.7 0.00 0.73 0.00 98 1012.5
20260906090750 70 266 0.0 1.7 0.00 0.73 0.00 98 1012.5
20260906090513 70 266 0.0 1.7 0.00 0.73 0.00 98 1012.4
20260906090234 70 266 0.0 1.7 0.00 0.73 0.00 98 1012.4
20260906085248 70 200 0.0 0.0 0.00 0.73 0.00 98 1012.3
20260906085011 70 200 0.0 0.0 0.00 0.73 0.00 98 1012.4
20260906084249 70 200 0.0 0.0 0.00 0.73 0.00 98 1012.3
20260906083750 70 200 0.0 0.0 0.00 0.73 0.00 98 1012.2
20260906083250 70 200 0.0 0.0 0.00 0.73 0.00 98 1012.1
20260906082748 70 200 0.0 0.0 0.00 0.73 0.00 98 1012.3
20260906082246 70 200 0.0 0.0 0.00 0.73 0.00 98 1012.2
20260906081746 70 200 0.0 0.9 0.00 0.73 0.00 98 1012.2
20260906081244 70 200 0.0 1.7 0.00 0.73 0.00 98 1012.3
20260906080745 70 200 0.0 1.7 0.00 0.73 0.00 98 1012.2
20260906080244 70 200 0.0 0.0 0.00 0.73 0.00 98 1012.3
20260906075743 70 200 0.0 0.0 0.00 0.73 0.00 98 1012.2
20260906075237 70 200 0.0 0.0 0.00 0.73 0.00 98 1012.3
20260906074731 70 200 0.0 0.0 0.00 0.73 0.00 98 1012.4
20260906074448 70 200 0.0 0.0 0.00 0.73 0.00 98 1012.5
20260906073719 70 200 0.0 0.0 0.00 0.73 0.00 98 1012.4
20260906073214 70 200 0.0 0.0 0.00 0.73 0.00 98 1012.4
20260906072926 70 200 0.0 0.9 0.00 0.73 0.00 98 1012.5
20260906072200 70 200 0.0 0.9 0.00 0.73 0.00 98 1012.7
20260906071655 70 200 0.0 0.0 0.00 0.73 0.00 98 1012.7
20260906071149 71 200 0.0 0.0 0.00 0.73 0.00 98 1012.5
20260906070643 71 200 0.0 0.0 0.00 0.73 0.00 98 1012.6
20260906070137 71 200 0.0 0.0 0.00 0.73 0.00 98 1012.6
20260906065632 71 200 0.0 0.0 0.00 0.73 0.00 98 1012.5
20260906065125 71 200 0.0 0.0 0.00 0.73 0.00 98 1012.6
20260906064619 71 200 0.0 0.0 0.00 0.73 0.00 98 1012.5
20260906064114 71 200 0.0 0.0 0.00 0.73 0.00 98 1012.4
20260906063827 71 200 0.0 0.0 0.00 0.73 0.00 98 1012.4
20260906063101 71 200 0.0 0.0 0.00 0.73 0.00 98 1012.7
20260906062555 71 200 0.0 0.0 0.00 0.73 0.00 98 1012.9
20260906062543 71 200 0.0 0.0 0.00 0.73 0.00 98 1012.9
20260906061812 71 200 0.0 0.0 0.00 0.73 0.00 98 1013.0
20260906061037 71 200 0.0 0.0 0.00 0.73 0.00 98 1012.9
20260906060532 71 200 0.0 0.0 0.00 0.73 0.00 98 1012.7
20260906060026 71 200 0.0 0.0 0.00 0.73 0.00 98 1012.8
20260906055519 71 200 0.0 0.0 0.00 0.73 0.00 98 1012.9
20260906055014 71 200 0.0 0.0 0.00 0.73 0.00 98 1013.0
20260906054728 71 200 0.0 0.0 0.00 0.73 0.00 98 1013.0
20260906054002 71 200 0.0 0.0 0.00 0.73 0.00 98 1013.2
20260906053945 71 200 0.0 0.0 0.00 0.73 0.00 98 1013.1
20260906053218 72 200 0.0 0.0 0.00 0.73 0.00 98 1013.2
20260906052443 72 200 0.0 1.7 0.00 0.73 0.00 98 1013.1
20260906051944 72 200 0.0 1.7 0.00 0.73 0.00 98 1013.1
20260906051440 72 200 0.0 0.9 0.00 0.73 0.00 98 1013.2
20260906050940 72 200 0.0 0.9 0.00 0.73 0.00 98 1013.2
20260906050441 72 200 0.0 0.9 0.00 0.73 0.00 98 1013.1
20260906045942 72 200 0.0 0.9 0.00 0.73 0.00 98 1013.2
20260906045441 72 200 0.0 0.0 0.00 0.73 0.00 98 1013.3
20260906045205 72 200 0.0 0.0 0.00 0.73 0.00 98 1013.5
20260906044701 72 200 0.0 0.0 0.00 0.73 0.00 98 1013.6
20260906043936 72 200 0.0 1.7 0.00 0.73 0.00 98 1013.8
20260906043436 72 200 0.0 1.7 0.00 0.73 0.00 98 1013.8
20260906042935 73 200 0.0 1.7 0.00 0.73 0.00 98 1013.8
20260906042433 73 231 0.0 0.0 0.00 0.73 0.00 98 1013.9
20260906041931 73 231 0.0 0.0 0.00 0.73 0.00 98 1013.7
20260906041429 73 231 0.0 0.0 0.00 0.73 0.00 98 1013.7
20260906041200 73 231 0.0 0.0 0.00 0.73 0.00 98 1013.6
20260906040424 73 231 0.0 0.0 0.00 0.73 0.00 97 1013.6
20260906035923 73 231 0.0 0.0 0.00 0.73 0.73 97 1013.6
20260906035416 73 231 0.0 0.0 0.00 0.73 0.73 97 1013.3
20260906034910 73 231 0.0 0.0 0.00 0.73 0.73 98 1013.2
20260906034404 73 231 0.0 0.9 0.00 0.73 0.73 98 1013.3
20260906033858 73 231 0.0 0.9 0.00 0.73 0.73 98 1013.4
20260906033352 73 231 0.0 0.0 0.00 0.73 0.73 98 1013.5
20260906032846 73 231 0.0 0.0 0.00 0.73 0.73 97 1013.6
20260906032340 73 231 0.0 0.0 0.00 0.73 0.73 97 1013.6
20260906031834 73 231 0.0 0.0 0.00 0.73 0.73 97 1013.3
20260906031328 73 231 0.0 0.0 0.00 0.73 0.73 97 1013.4
20260906031051 73 231 0.0 0.0 0.00 0.73 0.73 97 1013.4
20260906030323 73 231 0.0 0.0 0.00 0.73 0.73 97 1013.4
20260906025823 73 231 0.0 0.0 0.00 0.73 0.73 97 1013.2
20260906025318 73 231 0.0 0.0 0.00 0.73 0.73 97 1013.3
20260906024812 73 231 0.0 0.0 0.00 0.73 0.73 97 1013.2
20260906024750 73 231 0.0 0.0 0.00 0.73 0.73 97 1013.1
20260906024022 73 231 0.0 0.0 0.00 0.73 0.73 97 1013.3
20260906023749 74 231 0.0 0.0 0.00 0.73 0.73 97 1013.4
20260906022748 74 231 0.0 0.0 0.00 0.73 0.73 97 1013.4
20260906022242 74 231 0.0 0.0 0.00 0.73 0.73 97 1013.4
20260906021736 74 231 0.0 0.0 0.00 0.73 0.73 97 1013.3
20260906021234 74 231 0.0 1.7 0.00 0.73 0.73 97 1013.3
20260906020733 74 231 0.9 1.7 0.00 0.73 0.73 97 1013.1
20260906020234 74 231 0.9 2.6 0.00 0.73 0.73 97 1013.1
20260906015732 74 294 0.0 2.6 0.00 0.73 0.73 97 1012.9
20260906015234 74 309 0.0 1.7 0.00 0.73 0.73 97 1013.0
20260906014734 74 309 0.0 1.7 0.00 0.73 0.73 97 1012.9
20260906014233 74 355 0.0 0.9 0.00 0.73 0.73 97 1012.6
20260906013733 74 355 0.0 0.9 0.00 0.73 0.73 97 1012.4
20260906013234 74 355 0.0 1.7 0.00 0.73 0.73 97 1012.4
20260906012730 74 355 0.0 1.7 0.00 0.73 0.73 97 1012.3
20260906012229 74 355 0.9 2.6 0.00 0.73 0.73 96 1012.4
20260906011728 74 338 0.9 2.6 0.00 0.73 0.73 96 1012.4
20260906011230 74 343 0.0 1.7 0.00 0.73 0.73 96 1012.3
20260906010730 74 344 0.9 3.5 0.00 0.73 0.73 96 1012.4
20260906010452 74 336 1.7 4.3 0.00 0.73 0.73 96 1012.3
20260906005730 74 315 0.9 4.3 0.01 0.73 0.73 96 1012.4
20260906005446 74 323 0.0 3.5 0.01 0.73 0.73 96 1012.5
20260906004730 74 333 0.0 1.7 0.01 0.73 0.73 96 1012.4
20260906004223 74 333 0.0 1.7 0.01 0.73 0.73 96 1012.5
20260906003717 75 333 0.9 2.6 0.01 0.73 0.73 96 1012.5
20260906003211 75 333 0.9 2.6 0.01 0.73 0.73 96 1012.7
20260906002705 75 325 0.0 0.9 0.02 0.73 0.73 96 1012.7
20260906002159 75 325 0.9 2.6 0.23 0.73 0.73 96 1012.6
20260906001653 75 325 1.7 3.5 0.64 0.73 0.73 95 1012.5
20260906001147 75 325 1.7 5.2 0.69 0.73 0.73 96 1012.4
20260906000900 75 320 1.7 5.2 0.69 0.73 0.73 96 1012.7
20260906000134 75 329 0.0 2.6 0.69 0.73 0.73 95 1012.6
20260905235612 75 329 0.0 0.0 0.68 0.72 0.72 95 1012.7
20260905235105 75 329 0.0 2.6 0.68 0.72 0.72 95 1012.8
20260905234558 75 329 1.7 4.3 0.68 0.72 0.72 95 1012.9
20260905234051 75 331 1.7 5.2 0.68 0.72 0.72 95 1012.9
20260905233805 75 322 0.9 5.2 0.68 0.72 0.72 94 1013.0
20260905233523 76 0 0.9 7.0 0.68 0.72 0.72 94 1012.8
20260905232533 76 195 1.7 7.0 0.64 0.68 0.68 92 1012.9
20260905232027 76 210 0.9 6.1 0.36 0.40 0.46 91 1013.8
20260905232007 77 38 0.0 1.7 0.03 0.07 0.08 92 1013.9
20260905231015 77 103 0.0 0.0 0.00 0.04 0.04 92 1013.5
20260905230510 77 103 0.0 0.0 0.00 0.04 0.04 92 1013.3
20260905230004 77 101 0.0 0.0 0.00 0.04 0.04 91 1012.9
20260905225457 77 101 0.0 1.7 0.00 0.04 0.04 90 1013.0
20260905224951 77 101 0.0 1.7 0.00 0.04 0.04 90 1012.9
20260905224445 77 103 0.0 1.7 0.00 0.04 0.04 90 1012.3
20260905223939 77 103 0.0 1.7 0.00 0.04 0.04 90 1012.1
20260905223433 77 103 0.0 1.7 0.00 0.04 0.04 91 1011.8
20260905222927 77 97 0.0 1.7 0.01 0.04 0.04 89 1011.4
20260905222907 77 96 0.0 0.9 0.01 0.04 0.04 88 1011.0
20260905221915 77 96 0.0 0.9 0.02 0.04 0.04 87 1011.2
20260905221410 77 96 0.0 3.5 0.02 0.04 0.04 87 1011.4
20260905221102 77 76 0.9 5.2 0.04 0.04 0.04 86 1012.0
20260905220945 77 96 0.9 3.5 0.03 0.04 0.04 86 1011.6
20260905215851 77 50 1.7 5.2 0.04 0.04 0.04 84 1011.9
20260905215345 78 225 1.7 5.2 0.04 0.04 0.04 83 1011.4
20260905214840 79 202 1.7 4.3 0.04 0.04 0.04 81 1011.2
20260905214333 80 325 1.7 3.5 0.04 0.04 0.04 79 1011.2
20260905214053 81 311 1.7 4.3 0.04 0.04 0.04 82 1011.5
20260905213321 81 204 2.6 4.3 0.04 0.04 0.04 82 1011.1
20260905213038 83 213 1.7 4.3 0.03 0.03 0.03 80 1011.0
20260905212538 85 189 0.9 4.3 0.03 0.03 0.03 78 1011.3
20260905211803 87 196 0.9 4.3 0.02 0.02 0.02 75 1011.9
20260905211257 88 222 0.9 4.3 0.01 0.01 0.02 75 1011.7
20260905210751 89 229 0.9 3.5 0.00 0.00 0.00 70 1011.5
20260905210251 89 342 0.9 1.7 0.00 0.00 0.00 67 1011.6
20260905205752 90 340 0.9 2.6 0.00 0.00 0.00 66 1011.3
20260905205515 90 250 0.9 2.6 0.00 0.00 0.00 67 1011.1
20260905205016 90 5 0.9 4.3 0.00 0.00 0.00 67 1011.1
20260905204247 90 251 0.9 4.3 0.00 0.00 0.00 68 1010.9
20260905203743 90 337 0.9 4.3 0.00 0.00 0.00 67 1011.1
20260905203244 91 330 0.9 4.3 0.00 0.00 0.00 68 1011.0
20260905202744 91 187 1.7 7.0 0.00 0.00 0.00 66 1011.1
20260905202240 92 210 1.7 7.0 0.00 0.00 0.00 66 1011.2
20260905201740 93 46 0.9 4.3 0.00 0.00 0.00 65 1011.1
20260905201241 93 221 0.9 2.6 0.00 0.00 0.00 67 1010.9
20260905200739 94 213 0.9 2.6 0.00 0.00 0.00 66 1010.8
20260905200239 95 231 0.0 1.7 0.00 0.00 0.00 63 1010.9
20260905195739 96 241 0.9 5.2 0.00 0.00 0.00 63 1011.0
20260905195237 96 241 0.9 5.2 0.00 0.00 0.00 61 1011.2
20260905195000 97 248 0.9 3.5 0.00 0.00 0.00 61 1010.9
20260905194234 97 185 1.7 7.0 0.00 0.00 0.00 60 1011.1
20260905193735 97 305 2.6 7.8 0.00 0.00 0.00 60 1011.3
20260905193235 98 187 2.6 7.8 0.00 0.00 0.00 59 1011.1
20260905192958 98 215 2.6 6.1 0.00 0.00 0.00 60 1011.2
20260905192234 98 190 2.6 6.1 0.00 0.00 0.00 59 1011.2
20260905191735 99 204 1.7 5.2 0.00 0.00 0.00 59 1011.2
20260905191229 99 327 1.7 5.2 0.00 0.00 0.00 59 1011.4
20260905190728 98 223 1.7 5.2 0.00 0.00 0.00 60 1011.4
20260905190229 99 15 1.7 5.2 0.00 0.00 0.00 59 1011.3
20260905190215 98 331 1.7 5.2 0.00 0.00 0.00 60 1011.6
20260905185229 98 221 1.7 5.2 0.00 0.00 0.00 61 1011.7
20260905184728 98 221 2.6 7.8 0.00 0.00 0.00 61 1011.8
20260905184229 98 225 2.6 7.8 0.00 0.00 0.00 60 1012.0
20260905183728 98 198 2.6 7.8 0.00 0.00 0.00 60 1012.1
20260905183228 98 184 2.6 7.8 0.00 0.00 0.00 60 1012.2
20260905182729 98 171 2.6 6.1 0.00 0.00 0.00 63 1012.3
20260905182229 98 169 1.7 4.3 0.00 0.00 0.00 60 1012.4
20260905181956 98 212 0.9 4.3 0.00 0.00 0.00 60 1012.5
20260905181227 98 307 0.9 4.3 0.00 0.00 0.00 61 1012.6
20260905180726 98 298 1.7 7.8 0.00 0.00 0.00 63 1012.7
20260905180225 98 211 1.7 7.8 0.00 0.00 0.00 62 1012.8
20260905175725 97 171 0.9 4.3 0.00 0.00 0.00 62 1012.8
20260905175227 97 171 0.9 4.3 0.00 0.00 0.00 63 1013.0
20260905174949 97 205 0.9 5.2 0.00 0.00 0.00 63 1013.1
20260905174226 96 5 1.7 5.2 0.00 0.00 0.00 62 1013.3
20260905173726 96 223 1.7 4.3 0.00 0.00 0.00 65 1013.4
20260905173226 96 184 0.9 4.3 0.00 0.00 0.00 64 1013.5
20260905172725 96 19 0.9 4.3 0.00 0.00 0.00 63 1013.5
20260905172226 96 215 0.9 4.3 0.00 0.00 0.00 65 1013.5
20260905171944 96 203 0.9 4.3 0.00 0.00 0.00 67 1013.5
20260905171225 96 316 0.9 4.3 0.00 0.00 0.00 67 1013.5
20260905171216 95 239 0.9 3.5 0.00 0.00 0.00 65 1013.5
20260905170225 95 324 0.9 3.5 0.00 0.00 0.00 65 1013.6
20260905165721 95 180 0.9 3.5 0.00 0.00 0.00 67 1013.7
20260905165221 94 195 0.9 5.2 0.00 0.00 0.00 66 1013.8
20260905164945 94 329 1.7 7.0 0.00 0.00 0.00 67 1013.9
20260905164220 94 338 1.7 7.0 0.00 0.00 0.00 67 1014.0
20260905163719 94 306 0.9 5.2 0.00 0.00 0.00 69 1014.2
20260905163217 93 198 1.7 4.3 0.00 0.00 0.00 69 1014.3
20260905162717 93 319 1.7 4.3 0.00 0.00 0.00 70 1014.2
20260905162214 93 202 0.9 3.5 0.00 0.00 0.00 70 1014.2
20260905161715 93 319 1.7 4.3 0.00 0.00 0.00 69 1014.4
20260905161212 92 227 1.7 6.1 0.00 0.00 0.00 72 1014.5
20260905160713 92 38 1.7 6.1 0.00 0.00 0.00 71 1014.5
20260905160213 92 5 0.9 4.3 0.00 0.00 0.00 73 1014.5
20260905155928 92 261 1.7 6.1 0.00 0.00 0.00 73 1014.5
20260905155210 91 310 1.7 6.1 0.00 0.00 0.00 72 1014.6
20260905154709 91 325 0.9 3.5 0.00 0.00 0.00 74 1014.7
20260905154210 91 0 1.7 7.0 0.00 0.00 0.00 74 1014.8
20260905153709 90 309 1.7 7.0 0.00 0.00 0.00 75 1014.8
20260905153428 90 351 1.7 4.3 0.00 0.00 0.00 75 1014.9
20260905152935 90 341 0.9 4.3 0.00 0.00 0.00 76 1015.1
20260905152428 89 257 0.9 5.2 0.00 0.00 0.00 77 1015.2
20260905151656 89 234 0.9 5.2 0.00 0.00 0.00 76 1015.3
20260905151150 88 252 1.7 4.3 0.00 0.00 0.00 79 1015.3
20260905150838 87 293 0.9 4.3 0.00 0.00 0.00 80 1015.2
20260905150727 88 355 1.7 4.3 0.00 0.00 0.00 79 1015.2
20260905145852 87 304 1.7 7.8 0.00 0.00 0.00 80 1015.2
20260905145126 86 306 1.7 7.8 0.00 0.00 0.00 81 1015.3
20260905144846 86 194 0.9 5.2 0.00 0.00 0.00 82 1015.4
20260905144114 85 223 0.9 5.2 0.00 0.00 0.00 83 1015.4
20260905143608 85 61 1.7 5.2 0.00 0.00 0.00 84 1015.4
20260905143102 84 227 0.9 3.5 0.00 0.00 0.00 85 1015.4
20260905142557 84 340 0.9 3.5 0.00 0.00 0.00 85 1015.5
20260905142050 83 206 0.9 2.6 0.00 0.00 0.00 86 1015.6
20260905141806 83 190 0.9 4.3 0.00 0.00 0.00 87 1015.7
20260905141039 83 296 0.9 4.3 0.00 0.00 0.00 87 1015.6
20260905140532 83 203 0.9 6.1 0.00 0.00 0.00 88 1015.6
20260905140026 82 192 0.9 6.1 0.00 0.00 0.00 89 1015.3
20260905135519 82 306 0.9 6.1 0.00 0.00 0.00 89 1015.4
20260905135014 82 253 0.9 6.1 0.00 0.00 0.00 90 1015.4
20260905134730 81 337 0.9 5.2 0.00 0.00 0.00 91 1015.4
20260905134002 81 341 0.9 5.2 0.00 0.00 0.00 91 1015.4
20260905133456 81 193 0.9 4.3 0.00 0.00 0.00 91 1015.4
20260905132950 80 211 0.9 5.2 0.00 0.00 0.00 92 1015.5
20260905132444 80 309 0.9 5.2 0.00 0.00 0.00 93 1015.6
20260905131938 80 306 0.9 2.6 0.00 0.00 0.00 93 1015.6
20260905131432 79 355 0.9 2.6 0.00 0.00 0.00 94 1015.6
20260905130926 79 250 0.9 4.3 0.00 0.00 0.00 94 1015.6
20260905130420 79 241 0.9 4.3 0.00 0.00 0.00 94 1015.7
20260905125914 78 230 0.9 2.6 0.00 0.00 0.00 95 1015.6
20260905125408 78 273 0.9 2.6 0.00 0.00 0.00 95 1015.7
20260905125350 78 234 0.9 4.3 0.00 0.00 0.00 95 1015.7
20260905124356 78 207 0.9 4.3 0.00 0.00 0.00 96 1015.8
20260905123851 78 232 0.9 2.6 0.00 0.00 0.00 96 1015.7
20260905123351 77 290 0.9 4.3 0.00 0.00 0.00 97 1015.3
20260905122853 77 173 0.0 4.3 0.00 0.00 0.00 97 1015.4
20260905122349 77 233 0.0 2.6 0.00 0.00 0.00 97 1015.5
20260905121851 77 273 0.0 2.6 0.00 0.00 0.00 97 1015.5
20260905121349 77 272 0.9 2.6 0.00 0.00 0.00 97 1015.3
20260905121208 77 202 0.9 3.5 0.00 0.00 0.00 97 1015.4
20260905121115 77 221 0.9 3.5 0.00 0.00 0.00 97 1015.4
20260905115849 76 236 0.9 4.3 0.00 0.00 0.00 97 1015.3
20260905115607 76 208 0.0 4.3 0.00 0.00 0.00 97 1015.2
20260905114846 76 210 0.0 2.6 0.00 0.00 0.00 97 1015.3
20260905114345 76 244 0.9 1.7 0.00 0.00 0.00 98 1015.3
20260905113847 76 245 0.9 2.6 0.00 0.00 0.00 98 1015.2
20260905113343 76 238 0.0 2.6 0.00 0.00 0.00 98 1015.2
20260905112843 76 239 0.0 1.7 0.00 0.00 0.00 98 1015.1